Minot AFB, ND

9:20 PM CST on February 21, 2018 (GMT -0600)
Minot Air Force Base

Weather History for KMIB - March, 2013

Change the Weather History Date:

Saturday, March 16, 2013

  Actual Average Record
Temperature  
Mean Temperature -6 °F -  
Max Temperature 7 °F 30 °F 96 °F (2009)
Min Temperature -18 °F 13 °F -18 °F (2013)
Degree Days  
Heating Degree Days 70    
Moisture  
Dew Point -12 °F    
Average Humidity 78    
Maximum Humidity 85    
Minimum Humidity 68    
Precipitation  
Precipitation 0.00 in - - ()
Sea Level Pressure  
Sea Level Pressure 30.34 in    
Wind  
Wind Speed 8 mph (WNW)    
Max Wind Speed 15 mph    
Max Gust Speed -    
Visibility 9 miles    
Events Rain , Snow    
Averages and records for this station are not official NWS values.
T = Trace of Precipitation, MM = Missing Value Source: NWS Daily Summary

Daily Weather History Graph

Daily Weather History Graph

Search for Another Location

Airport or City:

Trip Planner

Search our weather history database for the weather conditions in past years. The results will help you decide how hot, cold, wet, or windy it might be!

Date:

Astronomy

Mar. 16, 2013 Rise Set
Actual Time 7:55 AM CDT 7:52 PM CDT
Civil Twilight 7:24 AM CDT 8:23 PM CDT
Nautical Twilight 6:48 AM CDT 9:00 PM CDT
Astronomical Twilight 6:10 AM CDT 9:38 PM CDT
Moon 10:02 AM CDT (3/16) 12:30 AM CDT (3/16)
Length of Visible Light 12h 59m
Length of Day
11h 56m
Waxing Crescent, 23% of the Moon is Illuminated
Mar 16
Waxing Crescent
Mar 19
First Quarter
Mar 27
Full
Apr 2
Last Quarter
Apr 10
New

Hourly Weather History & Observations

Time (CDT) Temp. Windchill Dew Point Humidity Pressure Visibility Wind Dir Wind Speed Gust Speed Precip Events Conditions
12:55 AM -12.1 °F -31.3 °F -16.8 °F 80% 30.34 in 10.0 mi NW 10.4 mph - N/A   Clear
1:55 AM -13.4 °F -29.0 °F -18.8 °F 77% 30.33 in 10.0 mi WNW 6.9 mph - N/A   Clear
2:55 AM -13.4 °F -29.0 °F -18.4 °F 78% 30.35 in 10.0 mi West 6.9 mph - N/A   Clear
3:55 AM -15.2 °F -31.2 °F -20.4 °F 77% 30.35 in 10.0 mi WNW 6.9 mph - N/A   Clear
4:55 AM -16.4 °F -29.1 °F -21.8 °F 76% 30.34 in 10.0 mi West 4.6 mph - N/A   Clear
5:55 AM -18.6 °F -31.6 °F -24.3 °F 75% 30.34 in 10.0 mi West 4.6 mph - N/A   Clear
6:39 AM -18.4 °F -31.4 °F -23.8 °F 76% 30.35 in 10.0 mi WNW 4.6 mph - N/A   Mostly Cloudy
6:47 AM -18.4 °F -33.4 °F -23.8 °F 76% 30.35 in 10.0 mi WNW 5.8 mph - N/A   Mostly Cloudy
6:54 AM -18.4 °F -31.4 °F -23.8 °F 76% 30.35 in 10.0 mi West 4.6 mph - N/A   Overcast
6:55 AM -18.4 °F -31.4 °F -24.2 °F 75% 30.35 in 10.0 mi West 4.6 mph - N/A   Overcast
7:06 AM -18.4 °F -33.4 °F -23.8 °F 76% 30.35 in 10.0 mi West 5.8 mph - N/A   Overcast
7:07 AM -18.4 °F -33.4 °F -23.8 °F 76% 30.35 in 10.0 mi West 5.8 mph - N/A   Overcast
7:09 AM -18.4 °F -33.4 °F -23.8 °F 76% 30.35 in 10.0 mi West 5.8 mph - N/A   Overcast
7:10 AM -18.4 °F -33.4 °F -23.8 °F 76% 30.35 in 10.0 mi West 5.8 mph - N/A   Overcast
7:13 AM -18.4 °F -31.4 °F -23.8 °F 76% 30.35 in 10.0 mi West 4.6 mph - N/A   Overcast
7:14 AM -18.4 °F -31.4 °F -23.8 °F 76% 30.35 in 10.0 mi West 4.6 mph - N/A   Overcast
7:17 AM -18.4 °F -28.9 °F -23.8 °F 76% 30.35 in 10.0 mi WNW 3.5 mph - N/A   Overcast
7:21 AM -18.4 °F -28.9 °F -23.8 °F 76% 30.35 in 10.0 mi West 3.5 mph - N/A   Overcast
7:31 AM -16.6 °F -26.8 °F -22.0 °F 76% 30.34 in 10.0 mi WNW 3.5 mph - N/A Snow Light Snow
7:34 AM -16.6 °F -26.8 °F -22.0 °F 76% 30.34 in 10.0 mi WNW 3.5 mph - N/A Snow Light Snow
7:47 AM -14.8 °F -30.8 °F -20.2 °F 77% 30.34 in 10.0 mi SW 6.9 mph - N/A Snow Light Snow
7:55 AM -14.1 °F -29.9 °F -19.1 °F 78% 30.34 in 9.0 mi West 6.9 mph - 0.00 in   Overcast
7:59 AM -13.0 °F -28.6 °F -18.4 °F 77% 30.33 in 9.0 mi West 6.9 mph - N/A   Overcast
8:15 AM -11.2 °F -23.0 °F -14.8 °F 84% 30.33 in 10.0 mi West 4.6 mph - N/A Snow Light Snow
8:16 AM -11.2 °F -23.0 °F -14.8 °F 84% 30.33 in 10.0 mi West 4.6 mph - N/A Snow Light Snow
8:18 AM -9.4 °F -22.7 °F -14.8 °F 77% 30.33 in 10.0 mi West 5.8 mph - N/A Snow Light Snow
8:55 AM -4.4 °F -21.6 °F -8.5 °F 82% 30.32 in 10.0 mi WNW 10.4 mph - 0.00 in Snow Light Snow
9:01 AM -4.0 °F -22.1 °F -7.6 °F 85% 30.32 in 10.0 mi WNW 11.5 mph - N/A Snow Light Snow
9:09 AM -2.2 °F -18.9 °F -7.6 °F 78% 30.32 in 9.0 mi West 10.4 mph - N/A Rain Light Freezing Rain
9:42 AM -0.4 °F -17.6 °F -5.8 °F 78% 30.32 in 4.0 mi WNW 11.5 mph - N/A Rain Light Freezing Rain
10:07 AM 1.4 °F -16.1 °F -2.2 °F 85% 30.33 in 6.0 mi WNW 12.7 mph - N/A Snow Light Snow
10:27 AM 1.4 °F -17.6 °F -2.2 °F 85% 30.33 in 10.0 mi WNW 15.0 mph - N/A   Overcast
10:34 AM 1.4 °F -16.9 °F -2.2 °F 85% 30.33 in 10.0 mi NW 13.8 mph - N/A   Overcast
10:53 AM 1.4 °F -16.1 °F -2.2 °F 85% 30.33 in 10.0 mi NW 12.7 mph - N/A   Overcast
10:55 AM 2.1 °F -16.0 °F -1.7 °F 84% 30.33 in 10.0 mi NW 13.8 mph - 0.00 in   Overcast
11:03 AM 3.2 °F -13.9 °F -2.2 °F 78% 30.34 in 10.0 mi NW 12.7 mph - N/A   Overcast
11:12 AM 3.2 °F -13.9 °F -2.2 °F 78% 30.34 in 10.0 mi NW 12.7 mph - N/A   Light Freezing Rain
11:17 AM 3.2 °F -13.9 °F -2.2 °F 78% 30.35 in 10.0 mi NW 12.7 mph - N/A   Light Freezing Rain
11:26 AM 3.2 °F -15.3 °F -2.2 °F 78% 30.35 in 10.0 mi NW 15.0 mph - N/A   Light Freezing Rain
11:55 AM 2.7 °F -15.3 °F -1.1 °F 84% 30.35 in 10.0 mi NW 13.8 mph - 0.00 in   Light Freezing Rain
12:17 PM 3.2 °F -13.9 °F -0.4 °F 85% 30.36 in 2.5 mi NW 12.7 mph - N/A   Clear
12:18 PM 3.2 °F -13.9 °F -0.4 °F 85% 30.36 in 1.5 mi NW 12.7 mph - N/A   Clear
12:19 PM 3.2 °F -13.9 °F -0.4 °F 85% 30.36 in 1.2 mi NW 12.7 mph - N/A   Clear
12:27 PM 3.2 °F -14.6 °F -0.4 °F 85% 30.36 in 2.0 mi NNW 13.8 mph - N/A   Haze
12:28 PM 3.2 °F -13.9 °F -0.4 °F 85% 30.36 in 4.0 mi NNW 12.7 mph - N/A   Haze
12:55 PM 3.9 °F -12.2 °F -1.1 °F 80% 30.37 in 10.0 mi NNW 11.5 mph - 0.00 in   Clear
1:55 PM 5.7 °F -8.2 °F -1.3 °F 73% 30.39 in 10.0 mi NNW 9.2 mph - N/A   Clear
2:55 PM 6.8 °F -8.6 °F -0.9 °F 71% 30.37 in 10.0 mi North 11.5 mph - N/A   Overcast
3:55 PM 6.8 °F -5.9 °F -1.1 °F 70% 30.35 in 10.0 mi NNE 8.1 mph - N/A   Partly Cloudy
4:55 PM 7.0 °F -4.5 °F -1.7 °F 68% 30.35 in 10.0 mi NNE 6.9 mph - N/A   Scattered Clouds
5:55 PM 6.4 °F -3.9 °F -1.7 °F 69% 30.35 in 10.0 mi NE 5.8 mph - N/A   Clear
10:55 PM 3.9 °F -11.3 °F -2.6 °F 74% 30.30 in 10.0 mi ESE 10.4 mph - N/A   Overcast
11:55 PM 3.9 °F -11.3 °F -1.7 °F 78% 30.27 in 10.0 mi SE 10.4 mph - N/A   Overcast